Terminal Aerodrome Forecast
Issued by NWS Burlington, VT

Home | Current Version | Previous Version | Text Only | Print | Product List | Glossary On
Versions: 1 2 3 4 5 6 7 8 9 10 11 12 13 14 15 16
000
FTUS41 KBTV 292320
TAFBTV
TAF
KBTV 292320Z 3000/3024 35015G25KT P6SM BKN070
     FM300200 34008G18KT P6SM SCT070
     FM300500 36006KT P6SM SKC
     FM301600 33006KT P6SM OVC100
     FM302000 34004KT P6SM VCSH BKN050=

USA.gov is the U.S. government's official web portal to all federal, state and local government web resources and services.